Tracking 26442 objects as of 7-Dec-2022
HD Live streaming from Space Station
objects crossing your sky now

NOAA 16 DEB

Track NOAA 16 DEB now!
10-day predictions


NORAD ID: 41402
Int'l Code: 2000-055KF
Perigee: 848.9 km
Apogee: 897.9 km
Inclination: 98.8 °
Period: 102.3 minutes
Semi major axis: 7244 km
RCS: Unknown
Launch date: September 21, 2000
Source: United States (US)
Launch site: AIR FORCE WESTERN TEST RANGE (AFWTR)

Note: This is SATELLITE DEBRIS
aabbcc
Your satellite tracking list
Your tracking list is empty




NASA's NSSDC Master Catalog

Two Line Element Set (TLE):
1 41402U 00055KF  22339.95954176  .00002065  00000-0  12335-2 0  9995
2 41402  98.7658  19.7520 0033796 318.3507  41.5089 14.07985020350253
Source of the keplerian elements: AFSPC